Flag for Finland Weather past 2 weeks in Espoo, Finland

Now
84 °F

Sunny.


Feels Like: 84 °F
Forecast: 64 / 79 °F
Wind: 20 mph from Southwest

Location: Helsinki-Vantaa

Current Time: Jul 3, 2015 at 2:47:57 PM

Latest Report: Jul 3, 2015 at 2:20 PM


Visibility: 10 mi

Pressure: 30.21 "Hg

Humidity: 45%

Dew point: 61 °F

Location of EspooLocation

Historic Weather in Espoo — Graph

°F

Espoo temperature yesterday

Maximum temperature yesterday: 75 °F (at 12:50 PM)
Minimum temperature yesterday: 48 °F (at 3:50 AM)
Average temperature yesterday: 67 °F

Past Weeks' High & Low Weather Summary

 TemperatureHumidityPressure
High84 °F (Jul 3, 1:20 PM)100% (Jun 18, 2:20 PM)30.33 "Hg (Jun 18, 2:20 PM)
Low46 °F (Jun 20, 1:50 AM)36% (Jul 2, 12:20 PM)29.65 "Hg (Jun 18, 5:20 PM)
Average59 °F78%29.90 "Hg
* Reported Jun 18 1:20 PM — Jul 3 1:20 PM, Espoo, Weather by CustomWeather, © 2015

Note: Actual official high and low records may vary slightly from our data, if they occured in-between our weather recording intervals... More about our weather records

Advertising

Espoo weather history for previous 24 hours

 ConditionsComfort  
Time TempWeatherWind HumidityBarometerVisibility
1:20 PM
Fri, Jul 3
84 °FSunny.16 mph45%30.21 "Hg10 mi
12:50 PM82 °FSunny.21 mph48%30.21 "Hg10 mi
12:20 PM82 °FSunny.15 mph48%30.21 "Hg10 mi
11:50 AM82 °FSunny.17 mph48%30.21 "Hg10 mi
11:20 AM81 °FSunny.18 mph51%30.21 "Hg10 mi
10:50 AM79 °FSunny.18 mph54%30.24 "Hg10 mi
10:20 AM79 °FSunny.16 mph54%30.24 "Hg10 mi
9:50 AM77 °FSunny.14 mph57%30.24 "Hg10 mi
9:20 AM75 °FSunny.12 mph61%30.24 "Hg10 mi
8:50 AM75 °FSunny.14 mph57%30.24 "Hg10 mi
8:20 AM73 °FSunny.9 mph65%30.24 "Hg10 mi
7:50 AM70 °FSunny.9 mph69%30.24 "Hg10 mi
7:20 AM68 °FSunny.7 mph73%30.24 "Hg10 mi
6:50 AM66 °FSunny.7 mph73%30.24 "Hg10 mi
6:20 AM64 °FSunny.7 mph78%30.27 "Hg10 mi
5:50 AM63 °FSunny.8 mph83%30.27 "Hg10 mi
5:20 AM61 °FSunny.7 mph88%30.27 "Hg10 mi
4:50 AM61 °FClear.6 mph88%30.27 "Hg10 mi
4:20 AM61 °FClear.6 mph88%30.27 "Hg10 mi
3:50 AM59 °FClear.5 mph94%30.27 "Hg10 mi
3:20 AM61 °FClear.6 mph88%30.30 "Hg10 mi
2:50 AM61 °FClear.6 mph88%30.30 "Hg10 mi
2:20 AM63 °FClear.6 mph83%30.30 "Hg10 mi
1:50 AM63 °FClear.5 mph83%30.30 "Hg10 mi
1:20 AM63 °FClear.6 mph83%30.30 "Hg10 mi
12:50 AM64 °FClear.7 mph78%30.30 "Hg10 mi
12:20 AM66 °FClear.7 mph68%30.30 "Hg10 mi
11:50 PM
Thu, Jul 2
66 °FClear.8 mph68%30.30 "Hg10 mi
11:20 PM68 °FSunny.8 mph64%30.30 "Hg10 mi
10:50 PM68 °FSunny.9 mph64%30.30 "Hg10 mi
10:20 PM70 °FSunny.8 mph60%30.30 "Hg10 mi
9:50 PM72 °FSunny.9 mph53%30.30 "Hg10 mi
9:20 PM72 °FSunny.12 mph53%30.27 "Hg10 mi
8:50 PM73 °FSunny.13 mph50%30.30 "Hg10 mi
8:20 PM73 °FSunny.12 mph50%30.30 "Hg10 mi
7:50 PM73 °FSunny.13 mph47%30.30 "Hg10 mi
7:20 PM73 °FSunny.14 mph47%30.30 "Hg10 mi
6:50 PM75 °FPassing clouds.13 mph44%30.30 "HgN/A
6:20 PM75 °FSunny.12 mph44%30.30 "Hg10 mi
5:50 PM75 °FSunny.12 mph41%30.30 "Hg10 mi
5:20 PM75 °FSunny.12 mph39%30.30 "Hg10 mi
4:50 PM73 °FSunny.14 mph41%30.30 "Hg10 mi
4:20 PM73 °FSunny.15 mph41%30.33 "Hg10 mi
3:50 PM73 °FSunny.14 mph41%30.33 "Hg10 mi
3:20 PM73 °FSunny.10 mph41%30.33 "Hg10 mi
2:50 PM73 °FPassing clouds.10 mph41%30.33 "HgN/A
2:20 PM73 °FPassing clouds.8 mph44%30.33 "HgN/A
Weather by CustomWeather, © 2015

See weather overviewHow to use our weather pages